Regional Weather Roundup
Issued by NWS

Home | Current Version | Previous Version | Graphics & Text | Print | Product List | Glossary On
Versions: 1 2 3 4 5 6 7 8 9 10 11 12 13 14 15 16 17 18 19 20 21 22 23 24 25 26 27 28 29 30 31 32 33 34 35 36 37 38 39 40 41 42 43 44 45 46 47 48 49 50
000
ASUS43 KDMX 290301
RWRIA

WEATHER ROUNDUP FOR IOWA
NATIONAL WEATHER SERVICE DES MOINES IA
1000 PM CDT WED JUN 28 2017

NOTE: "FAIR" INDICATES FEW OR NO CLOUDS BELOW 12,000 FEET WITH NO
SIGNIFICANT WEATHER AND/OR OBSTRUCTIONS TO VISIBILITY.

* - THESE STATIONS ARE NOT NWS STATIONS...THUS NOT UNDER NWS
QUALITY CONTROL.  THEY ALSO DO NOT REPORT WEATHER SUCH
AS PRECIPITATION OR FOG.

IAZ001>003-012>014-020>022-031>034-043>046-290400-
   NORTHWEST IOWA

CITY           SKY/WX    TMP DP  RH WIND       PRES   REMARKS
CARROLL *      CLEAR     73  70  88 CALM      29.68R
CHEROKEE *     CLEAR     73  64  73 CALM      29.67R
DENISON *      PTCLDY    73  68  83 CALM      29.70R
LE MARS *      CLEAR     73  63  68 CALM      29.68R
ORANGE CITY *  CLEAR     75  64  69 NW3       29.69R
SHELDON *      CLEAR     72  64  78 W5        29.67R
SIOUX CITY     CLEAR     73  67  81 W3        29.67R
SPENCER        CLEAR     71  66  84 W9        29.67R
STORM LAKE *   CLEAR     73  66  78 W6        29.69R
$$

IAZ055>058-069>071-079>083-090>094-290400-
   SOUTHWEST IOWA

CITY           SKY/WX    TMP DP  RH WIND       PRES   REMARKS
ATLANTIC *     CLOUDY    72  66  83 S9        29.70R
AUDUBON *      CLOUDY    73  68  83 S5        29.71R
CLARINDA *     CLOUDY    73  70  88 CALM      29.70F
COUNCIL BLFS * CLEAR     79  64  61 NW3       29.69R HX  81
CRESTON *      CLOUDY    70  68  94 S12       29.72S
HARLAN  *      CLEAR     73  68  83 CALM      29.72R
LAMONI         CLOUDY    69  65  86 SW16G24   29.74R
RED OAK *      CLOUDY    72  68  88 CALM      29.70R
SHENANDOAH *   CLOUDY    73  70  88 CALM      29.69R
$$

IAZ047>049-059>061-072>074-084-290400-
   CENTRAL IOWA

CITY           SKY/WX    TMP DP  RH WIND       PRES   REMARKS
AMES           CLOUDY    70  66  87 S7        29.68R
ANKENY *       MOCLDY    72  64  78 SW7       29.69R
BOONE *        CLOUDY    72  64  78 SW10      29.68R
CHARITON *     CLOUDY    70  64  83 SW15G31   29.71R
DES MOINES     CLOUDY    72  64  76 SW8       29.67R
GRINNELL*      CLOUDY    74  69  83 CALM      29.73R
KNOXVILLE *    CLOUDY    73  63  68 SW9G17    29.68R
MARSHALLTOWN   CLOUDY    68  65  90 S9        29.69S
NEWTON *       CLOUDY    72  66  83 S12G17    29.70R
PELLA *        MOCLDY    72  63  72 SW3       29.71R
PERRY *          N/A     71  67  89 S7        29.69R
$$

IAZ004>006-015-016-023>025-035-036-290400-
   NORTH CENTRAL IOWA

CITY           SKY/WX    TMP DP  RH WIND       PRES   REMARKS
ALGONA *       PTCLDY    73  68  83 SW8       29.66R
ESTHERVILLE    PTCLDY    71  68  90 W5        29.65R
FORT DODGE *   CLEAR     73  64  73 W5        29.67R
MASON CITY     CLEAR     69  66  90 S9        29.66R
FOREST CITY *    N/A     73  57  56 W5        29.65R
WEBSTER CITY * CLEAR     72  68  88 SE5       29.65R
IOWA FALLS *     N/A     68  67  97 S10       29.69R
$$

IAZ007>011-017>019-026>030-037>042-050>054-066-290400-
   NORTHEAST IOWA

CITY           SKY/WX    TMP DP  RH WIND       PRES   REMARKS
CEDAR RAPIDS   CLOUDY    72  71  97 NW9       29.72R
CHARLES CITY * CLOUDY    68  68 100 S13       29.66R
CLINTON *      MOCLDY    77  68  73 S8        29.71R
DECORAH *      CLOUDY    68  63  83 VRB3G14   29.64R
DUBUQUE        MOCLDY    68  65  90 N15       29.69R
MONTICELLO *   CLOUDY    72  68  88 S13       29.66S
OELWEIN *      CLOUDY    70  64  83 SW14G20   29.65S
WATERLOO       CLOUDY    67  62  84 SW8       29.65S
$$

IAZ064-065-067-068-078-290400-
   EAST CENTRAL IOWA

CITY           SKY/WX    TMP DP  RH WIND       PRES   REMARKS
IOWA CITY      MOCLDY    80  69  69 W10       29.72R HX  83
MT. PLEASANT * DRIZZLE   76  67  73 S39G58    29.63F
MUSCATINE *    MOCLDY    81  66  61 W12G18    29.69R HX  83
QUAD CITIES    CLOUDY    80  64  58 S16       29.68R HX  82
$$

IAZ062-063-075>077-085>089-095>099-290400-
   SOUTHEAST IOWA

CITY           SKY/WX    TMP DP  RH WIND       PRES   REMARKS
BURLINGTON     LGT RAIN  76  70  82 S24G32    29.70F
FAIRFIELD *    CLOUDY    79  66  65 SW17G32   29.66R HX  81
FORT MADISON * LGT RAIN  79  70  73 S18G26    29.76F HX  81
KEOKUK *       CLOUDY    75  72  88 W7        29.82R
OSKALOOSA *      N/A     75  66  73 SW12      29.69R
OTTUMWA        CLOUDY    77  68  73 SW12      29.68R
WASHINGTON *   CLOUDY    79  70  73 SW16G22   29.70R HX  81
$$

ABBREVIATIONS USED IN REMARKS
   TC - TEMPERATURES IN CELSIUS
  WCI - WIND CHILL INDEX
   HX - HEAT INDEX
  VSB - VISIBILITY
$$





USA.gov is the U.S. government's official web portal to all federal, state and local government web resources and services.